TimeEDT,TemperatureF,Dew PointF,Humidity,Sea Level PressureIn,VisibilityMPH,Wind Direction,Wind SpeedMPH,Gust SpeedMPH,PrecipitationIn,Events,Conditions,WindDirDegrees,DateUTC
12:15 AM,65.7,65.3,99,30.13,3.0,NNW,5.8,-,N/A,,Clear,330,2013-06-17 04:15:00
12:35 AM,65.3,65.3,100,30.13,0.2,ENE,4.6,-,N/A,Fog,Fog,60,2013-06-17 04:35:00
12:55 AM,65.1,65.1,100,30.12,1.8,Calm,Calm,-,N/A,,Overcast,0,2013-06-17 04:55:00
1:15 AM,64.9,64.9,100,30.12,2.5,Calm,Calm,-,N/A,,Scattered Clouds,0,2013-06-17 05:15:00
1:35 AM,65.1,64.9,99,30.11,3.0,Calm,Calm,-,N/A,,Mostly Cloudy,0,2013-06-17 05:35:00
1:55 AM,65.1,65.1,100,30.11,2.5,ESE,3.5,-,N/A,,Overcast,120,2013-06-17 05:55:00
2:15 AM,65.7,65.3,99,30.11,5.0,Calm,Calm,-,N/A,,Overcast,0,2013-06-17 06:15:00
2:35 AM,65.3,64.9,99,30.10,4.0,Calm,Calm,-,N/A,,Overcast,0,2013-06-17 06:35:00
2:55 AM,65.1,64.8,99,30.11,1.8,SW,5.8,-,N/A,,Overcast,220,2013-06-17 06:55:00
3:15 AM,65.1,64.9,99,30.12,2.5,SSW,4.6,-,0.01,Thunderstorm,Overcast,210,2013-06-17 07:15:00
3:35 AM,64.8,63.7,96,30.11,7.0,South,4.6,-,0.01,,Overcast,190,2013-06-17 07:35:00
3:55 AM,64.6,63.0,94,30.11,7.0,SW,9.2,-,0.01,,Overcast,220,2013-06-17 07:55:00
4:15 AM,65.1,62.6,92,30.10,10.0,SW,3.5,-,N/A,Thunderstorm,Overcast,220,2013-06-17 08:15:00
4:35 AM,65.1,62.6,92,30.10,10.0,West,4.6,-,N/A,,Overcast,260,2013-06-17 08:35:00
4:55 AM,64.9,62.8,93,30.10,10.0,SW,5.8,-,N/A,,Overcast,230,2013-06-17 08:55:00
5:15 AM,64.0,62.8,96,30.10,10.0,Calm,Calm,-,N/A,,Overcast,0,2013-06-17 09:15:00
5:35 AM,64.4,63.0,95,30.11,10.0,WSW,3.5,-,N/A,,Overcast,250,2013-06-17 09:35:00
5:55 AM,64.2,62.8,95,30.10,10.0,WSW,3.5,-,N/A,,Mostly Cloudy,250,2013-06-17 09:55:00
6:15 AM,63.5,62.8,97,30.09,7.0,WSW,5.8,-,N/A,,Scattered Clouds,250,2013-06-17 10:15:00
6:35 AM,62.8,62.4,99,30.09,1.8,SSE,3.5,-,N/A,,Scattered Clouds,150,2013-06-17 10:35:00
6:55 AM,62.6,62.4,99,30.09,2.5,SSE,3.5,-,N/A,,Scattered Clouds,160,2013-06-17 10:55:00
7:15 AM,63.0,62.8,99,30.10,2.5,Calm,Calm,-,N/A,,Scattered Clouds,0,2013-06-17 11:15:00
7:35 AM,63.5,63.1,99,30.11,3.0,Calm,Calm,-,N/A,,Scattered Clouds,0,2013-06-17 11:35:00
7:55 AM,64.6,63.5,96,30.11,7.0,Calm,Calm,-,N/A,,Mostly Cloudy,0,2013-06-17 11:55:00
8:15 AM,64.6,63.3,96,30.12,7.0,West,3.5,-,N/A,,Overcast,280,2013-06-17 12:15:00
8:35 AM,65.3,63.7,94,30.12,7.0,SW,5.8,-,N/A,,Overcast,230,2013-06-17 12:35:00
8:55 AM,65.8,63.7,93,30.12,10.0,SW,6.9,-,N/A,,Overcast,220,2013-06-17 12:55:00
9:15 AM,66.7,64.4,92,30.11,10.0,SW,4.6,-,N/A,,Overcast,220,2013-06-17 13:15:00
9:35 AM,67.3,64.2,90,30.11,10.0,WSW,6.9,-,N/A,,Overcast,240,2013-06-17 13:35:00
9:55 AM,67.5,64.6,90,30.11,10.0,SW,4.6,-,N/A,,Overcast,220,2013-06-17 13:55:00
10:15 AM,68.2,64.9,89,30.10,10.0,West,3.5,-,N/A,,Overcast,270,2013-06-17 14:15:00
10:35 AM,68.2,65.3,90,30.11,10.0,WNW,3.5,-,N/A,,Overcast,300,2013-06-17 14:35:00
10:55 AM,69.4,65.8,88,30.11,5.0,Calm,Calm,-,N/A,,Overcast,0,2013-06-17 14:55:00
11:15 AM,70.2,65.7,86,30.11,5.0,WSW,4.6,-,N/A,,Overcast,250,2013-06-17 15:15:00
11:35 AM,71.4,66.2,84,30.11,5.0,WNW,5.8,-,N/A,,Haze,300,2013-06-17 15:35:00
11:55 AM,70.9,66.0,85,30.12,5.0,West,4.6,-,N/A,,Haze,260,2013-06-17 15:55:00
12:15 PM,71.2,65.5,82,30.12,5.0,WSW,4.6,-,N/A,,Haze,240,2013-06-17 16:15:00
12:35 PM,72.7,66.9,82,30.11,7.0,WSW,4.6,-,N/A,,Mostly Cloudy,240,2013-06-17 16:35:00
12:55 PM,73.2,66.6,80,30.10,7.0,SW,3.5,-,N/A,,Overcast,220,2013-06-17 16:55:00
1:15 PM,73.2,66.7,80,30.10,7.0,Calm,Calm,-,N/A,Rain,Light Rain,0,2013-06-17 17:15:00
1:35 PM,73.2,67.6,83,30.10,10.0,WNW,4.6,-,N/A,Rain,Light Rain,290,2013-06-17 17:35:00
1:55 PM,75.4,65.8,72,30.10,10.0,West,6.9,-,N/A,,Scattered Clouds,260,2013-06-17 17:55:00
2:15 PM,75.7,64.8,69,30.09,10.0,SW,4.6,-,N/A,,Scattered Clouds,230,2013-06-17 18:15:00
2:35 PM,76.3,65.5,69,30.09,10.0,WNW,4.6,-,N/A,,Scattered Clouds,290,2013-06-17 18:35:00
2:55 PM,74.8,66.4,75,30.09,10.0,West,4.6,-,N/A,,Mostly Cloudy,260,2013-06-17 18:55:00
3:15 PM,75.7,65.7,71,30.08,10.0,West,8.1,-,N/A,,Mostly Cloudy,280,2013-06-17 19:15:00
3:35 PM,77.0,66.4,70,30.07,10.0,West,6.9,-,N/A,,Mostly Cloudy,280,2013-06-17 19:35:00
3:55 PM,74.1,66.0,76,30.07,10.0,West,8.1,-,N/A,,Scattered Clouds,260,2013-06-17 19:55:00
4:15 PM,74.3,65.7,74,30.06,10.0,West,5.8,-,N/A,,Scattered Clouds,260,2013-06-17 20:15:00
4:35 PM,75.9,66.4,72,30.05,10.0,SW,5.8,-,N/A,,Mostly Cloudy,230,2013-06-17 20:35:00
4:55 PM,76.1,64.2,67,30.04,10.0,South,4.6,-,N/A,,Scattered Clouds,180,2013-06-17 20:55:00
5:15 PM,76.5,62.2,61,30.04,10.0,SW,5.8,-,N/A,,Clear,230,2013-06-17 21:15:00
5:35 PM,76.6,62.6,62,30.04,10.0,SW,4.6,-,N/A,,Clear,230,2013-06-17 21:35:00
5:55 PM,77.5,63.5,62,30.04,10.0,West,4.6,-,N/A,,Scattered Clouds,260,2013-06-17 21:55:00
6:15 PM,77.4,62.6,60,30.03,10.0,SSW,3.5,-,N/A,,Scattered Clouds,200,2013-06-17 22:15:00
6:35 PM,77.2,63.7,63,30.03,10.0,SW,3.5,-,N/A,,Scattered Clouds,230,2013-06-17 22:35:00
6:55 PM,76.8,63.1,63,30.03,10.0,SW,4.6,-,N/A,,Clear,230,2013-06-17 22:55:00
7:15 PM,76.3,61.5,60,30.02,10.0,Calm,Calm,-,N/A,,Clear,0,2013-06-17 23:15:00
7:35 PM,75.2,61.2,62,30.02,10.0,Calm,Calm,-,N/A,,Clear,0,2013-06-17 23:35:00
7:55 PM,74.8,63.5,68,30.03,10.0,WSW,4.6,-,N/A,,Clear,250,2013-06-17 23:55:00
8:15 PM,73.6,64.6,73,30.03,10.0,WSW,4.6,-,N/A,,Clear,240,2013-06-18 00:15:00
8:35 PM,73.4,64.0,72,30.02,10.0,SW,3.5,-,N/A,,Clear,230,2013-06-18 00:35:00
8:55 PM,72.9,64.6,75,30.04,10.0,SW,4.6,-,N/A,,Mostly Cloudy,230,2013-06-18 00:55:00
9:15 PM,72.9,64.6,75,30.04,10.0,WSW,3.5,-,N/A,,Scattered Clouds,240,2013-06-18 01:15:00
9:35 PM,72.5,64.8,77,30.04,10.0,WSW,4.6,-,N/A,,Scattered Clouds,240,2013-06-18 01:35:00
9:55 PM,72.1,65.1,78,30.04,10.0,SSW,3.5,-,N/A,,Scattered Clouds,210,2013-06-18 01:55:00
10:15 PM,71.1,65.5,82,30.04,10.0,SSW,3.5,-,N/A,,Clear,210,2013-06-18 02:15:00
10:35 PM,70.3,65.5,85,30.04,10.0,South,3.5,-,N/A,Thunderstorm,Clear,180,2013-06-18 02:35:00
10:55 PM,70.3,65.5,85,30.05,10.0,Calm,Calm,-,N/A,,Clear,0,2013-06-18 02:55:00
11:15 PM,70.3,65.5,85,30.05,10.0,SW,4.6,-,N/A,,Clear,230,2013-06-18 03:15:00
11:35 PM,69.8,65.7,87,30.05,10.0,West,4.6,-,N/A,,Clear,270,2013-06-18 03:35:00
11:55 PM,69.8,65.7,87,30.05,10.0,South,3.5,-,N/A,,Clear,180,2013-06-18 03:55:00